Location: Unnamed
(43.8802°N, 4.5934°E)
Time: 04:24:31
(UTC+02:00)

STARLINK-31883 - Visible Passes

Search period start: 13 June 2024 00:00
Search period end: 23 June 2024 00:00
Orbit: 278 x 280 km, 53.2° (Epoch: 12 June)

Date Brightness Start Highest point End Pass type
(mag) Time Alt. Az. Time Alt. Az. Time Alt. Az.
13 Jun 6.1 01:07:22 10° N 01:07:54 10° N 01:08:26 10° NNE visible
13 Jun 4.8 02:40:07 10° NNW 02:42:04 23° NNE 02:42:04 23° NNE visible
13 Jun 4.0 21:59:55 10° W 22:02:14 37° NNW 22:04:34 10° NE visible
13 Jun 5.9 23:35:31 10° NNW 23:36:30 12° N 23:37:30 10° NNE visible
14 Jun 5.8 01:10:02 10° NNW 01:11:05 12° N 01:12:07 10° NE visible
14 Jun 5.5 02:42:59 10° NW 02:43:11 12° NW 02:43:11 12° NW visible
14 Jun 5.1 22:04:45 10° W 22:06:48 22° NNW 22:08:50 10° NNE visible
14 Jun 6.0 23:40:49 10° NNW 23:41:19 10° N 23:41:49 10° N visible
15 Jun 5.4 01:14:26 10° NNW 01:15:59 15° NNE 01:16:29 14° NNE visible
15 Jun 5.5 22:11:34 10° WNW 22:13:10 15° NNW 22:14:46 10° NNE visible
15 Jun 5.9 23:47:27 10° N 23:47:55 10° N 23:48:22 10° NNE visible
16 Jun 5.3 01:20:34 10° NNW 01:21:54 19° N 01:21:54 19° N visible
16 Jun 5.6 22:20:18 10° NW 22:21:21 12° N 22:22:24 10° NNE visible
16 Jun 5.6 23:55:15 10° NNW 23:56:15 12° N 23:57:14 10° NNE visible
17 Jun 5.4 01:28:31 10° NW 01:29:08 15° NW 01:29:08 15° NW visible
17 Jun 5.8 22:30:54 10° NNW 22:31:21 10° N 22:31:49 10° N visible
18 Jun 5.2 00:04:44 10° NNW 00:06:19 15° NNE 00:07:31 12° NE visible
18 Jun 5.7 22:42:36 10° N 22:43:08 10° N 22:43:40 10° NNE visible
19 Jun 4.5 00:16:00 10° NNW 00:18:05 23° NNE 00:18:09 23° NNE visible
19 Jun 5.3 22:55:28 10° NNW 22:56:40 13° NNE 22:57:52 10° NE visible
20 Jun 4.4 00:29:06 10° NW 00:30:32 28° NNW 00:30:32 28° NNW visible
20 Jun 4.8 23:10:06 10° NNW 23:11:56 18° NNE 23:13:45 10° ENE visible
21 Jun 5.2 00:44:10 10° WNW 00:44:41 15° WNW 00:44:41 15° WNW visible
21 Jun 3.6 23:26:33 10° NW 23:28:52 34° NNE 23:29:32 28° ENE visible
22 Jun 5.0 22:10:50 10° NNW 22:12:28 16° NNE 22:14:07 10° ENE visible
22 Jun 2.7 23:44:58 10° WNW 23:47:04 58° WNW 23:47:04 58° WNW visible
